Weather History for Billings, MT

Change the Weather History Date:

Sunday, June 16, 2013

  Actual Average Record
Temperature  
Mean Temperature 63 °F 65 °F  
Max Temperature 76 °F 77 °F 95 °F (1988)
Min Temperature 50 °F 52 °F 40 °F (1945)
Degree Days  
Heating Degree Days 2 3  
Month to date heating degree days 64 70  
Since 1 June heating degree days 64 70  
Since 1 July heating degree days 6411 6756  
Cooling Degree Days 0 3  
Month to date cooling degree days 16 28  
Year to date cooling degree days 43 45  
Since 1 June cooling degree days 16 28  
Growing Degree Days 14 (Base 50)    
Moisture  
Dew Point 43 °F    
Average Humidity 49    
Maximum Humidity 68    
Minimum Humidity 29    
Precipitation  
Precipitation 0.00 in 0.07 in 1.32 in (1982)
Month to date precipitation 0.58 1.22  
Year to date precipitation 7.02 7.08  
Snow  
Snow 0.00 in 0.00 in T in (2005)
Month to date snowfall 0.0 0.0  
Since 1 June snowfall 0.0 0.0  
Since 1 July snowfall 40.4 55.0  
Snow Depth 0.00 in    
Sea Level Pressure  
Sea Level Pressure 30.02 in    
Wind  
Wind Speed 8 mph (NE)    
Max Wind Speed 17 mph    
Max Gust Speed 21 mph    
Visibility 10 miles    
Events      
T = Trace of Precipitation, MM = Missing Value Source: NWS Daily Summary

Daily Weather History Graph

Daily Weather History Graph

Search for Another Location

Airport:

Trip Planner

Search our weather history database for the weather conditions in past years. The results will help you decide how hot, cold, wet, or windy it might be!

Date:

Astronomy

Jun. 16, 2013 Rise Set
Actual Time 5:23 AM MDT 9:06 PM MDT
Civil Twilight 4:45 AM MDT 9:44 PM MDT
Nautical Twilight 3:53 AM MDT 10:36 PM MDT
Astronomical Twilight 2:42 AM MDT 11:47 PM MDT
Moon 1:25 PM MDT 12:51 AM MDT
Length of Visible Light 16h 59m
Length of Day
15h 42m
Waxing Crescent, 50% of the Moon is Illuminated
Jun 16
Waxing Crescent
Jun 23
Full
Jun 29
Last Quarter
Jul 8
New
Jul 15
First Quarter

Hourly Weather History & Observations

Time (MDT) Temp. Dew Point Humidity Pressure Visibility Wind Dir Wind Speed Gust Speed Precip Events Conditions
12:53 AM 57.9 °F 42.1 °F 56% 29.96 in 10.0 mi North 8.1 mph - N/A   Clear
1:53 AM 57.9 °F 42.1 °F 56% 29.96 in 10.0 mi North 8.1 mph - N/A   Clear
2:53 AM 57.9 °F 41.0 °F 53% 29.97 in 10.0 mi North 8.1 mph - N/A   Clear
3:53 AM 55.0 °F 41.0 °F 59% 29.97 in 10.0 mi Calm Calm - N/A   Clear
4:53 AM 52.0 °F 41.0 °F 66% 29.99 in 10.0 mi NW 9.2 mph - N/A   Clear
5:53 AM 53.1 °F 41.0 °F 64% 30.01 in 10.0 mi SW 6.9 mph - N/A   Clear
6:53 AM 55.0 °F 42.1 °F 62% 30.01 in 10.0 mi WSW 8.1 mph - N/A   Clear
7:53 AM 55.9 °F 44.1 °F 64% 30.02 in 10.0 mi SSW 8.1 mph - N/A   Clear
8:53 AM 61.0 °F 46.0 °F 58% 30.03 in 10.0 mi SSW 6.9 mph - N/A   Clear
9:53 AM 66.0 °F 46.0 °F 48% 30.03 in 10.0 mi Calm Calm - N/A   Clear
10:53 AM 69.1 °F 42.1 °F 38% 30.04 in 10.0 mi Variable 3.5 mph - N/A   Clear
11:53 AM 71.1 °F 37.0 °F 29% 30.03 in 10.0 mi Variable 4.6 mph 16.1 mph N/A   Clear
12:53 PM 73.0 °F 42.1 °F 33% 30.03 in 10.0 mi ENE 8.1 mph - N/A   Partly Cloudy
1:53 PM 73.9 °F 42.1 °F 32% 30.02 in 10.0 mi NE 6.9 mph - N/A   Partly Cloudy
2:53 PM 75.0 °F 43.0 °F 32% 30.01 in 10.0 mi ENE 5.8 mph - N/A   Partly Cloudy
3:53 PM 75.9 °F 44.1 °F 32% 30.00 in 10.0 mi ENE 12.7 mph - N/A   Partly Cloudy
4:53 PM 75.0 °F 44.1 °F 33% 30.02 in 10.0 mi East 9.2 mph - N/A   Partly Cloudy
5:53 PM 75.0 °F 45.0 °F 34% 30.02 in 10.0 mi ENE 12.7 mph 19.6 mph N/A   Scattered Clouds
6:53 PM 73.9 °F 46.0 °F 37% 30.02 in 10.0 mi ENE 16.1 mph - N/A   Scattered Clouds
7:53 PM 73.0 °F 44.1 °F 35% 30.04 in 10.0 mi ENE 12.7 mph - N/A   Scattered Clouds
8:53 PM 70.0 °F 46.9 °F 44% 30.06 in 10.0 mi ENE 8.1 mph - N/A   Scattered Clouds
9:53 PM 66.9 °F 46.9 °F 49% 30.04 in 10.0 mi NE 13.8 mph - N/A   Scattered Clouds
10:53 PM 63.0 °F 46.9 °F 56% 30.07 in 10.0 mi NE 8.1 mph - N/A   Partly Cloudy
11:53 PM 60.1 °F 46.0 °F 60% 30.08 in 10.0 mi NNE 8.1 mph - N/A   Partly Cloudy